User: anonymous   Login
Location: Nebula Knoll Observatory
(43.6666°N, 71.0000°W)
Time: 15:01:30
(UTC-04:00)
Language:

Cosmos 1782 - Orbit

View from above orbital plane
View from above orbital plane
View from above satellite
View from above satellite

Ground track
Ground track

The orbit data is extracted from the following two-line orbital elements,

1 16986U 86074A   15184.79755653  .00000687  00000-0  46223-4 0  9993
2 16986 082.5082 095.5948 0009693 258.4327 101.5812 15.05150311563335
Epoch (UTC): 03 July 2015 19:08:28
Eccentricity: 0.0009693
inclination: 82.5082°
perigee height: 544 km
apogee height: 558 km
right ascension of ascending node: 95.5948°
argument of perigee: 258.4327°
revolutions per day: 15.05150311
mean anomaly at epoch: 101.5812°
orbit number at epoch: 56333

The dashed part of the orbit path shows where the satellite is in the earth's shadow,  

DLR